When you browse on this site, cookies collect data to enhance your experience and personalize the content and advertising you see.
Visit our Privacy Policy to learn more. By continuing to use the site, you agree to this use of cookies and data.
  • In Österreich
  • Länderverzeichnis
  • Für 7 Tage
  • Wassertemperatur
  • Wetterkarte
  • News
  • Widgets
  • user-avatar
    Anmelden

    Stündliche Wetter Zastavky-Yabluniv

    Heute, 19 August, Montag

    Zeit Temperatur Niederschläge Wind Luftdruck Luftfeuchtigkeit
    00:00 +17°C° 0 mm 2 m/S 733 mmHg 74%
    01:00 +17°C° 0 mm 2 m/S 733 mmHg 74%
    02:00 +17°C° 0 mm 2 m/S 733 mmHg 75%
    03:00 +16°C° 0 mm 2 m/S 733 mmHg 75%
    04:00 +16°C° 0 mm 2 m/S 733 mmHg 75%
    05:00 +16°C° 0 mm 2 m/S 733 mmHg 74%
    06:00 +18°C° 0 mm 2 m/S 733 mmHg 72%
    07:00 +19°C° 0 mm 2 m/S 734 mmHg 70%
    08:00 +20°C° 0 mm 2 m/S 734 mmHg 68%
    09:00 +23°C° 0 mm 2 m/S 734 mmHg 64%
    10:00 +25°C° 0 mm 2 m/S 734 mmHg 60%
    11:00 +27°C° 0 mm 3 m/S 734 mmHg 56%
    12:00 +28°C° 0 mm 2 m/S 734 mmHg 54%
    13:00 +29°C° 0 mm 2 m/S 734 mmHg 53%
    14:00 +30°C° 0 mm 2 m/S 735 mmHg 51%
    15:00 +30°C° 0 mm 2 m/S 734 mmHg 53%
    16:00 +30°C° 0 mm 2 m/S 734 mmHg 54%
    17:00 +30°C° 0 mm 1 m/S 734 mmHg 55%
    18:00 +28°C° 0 mm 2 m/S 734 mmHg 60%
    19:00 +26°C° 0 mm 2 m/S 734 mmHg 65%
    20:00 +24°C° 0 mm 2 m/S 734 mmHg 70%
    21:00 +23°C° 0 mm 2 m/S 734 mmHg 71%
    22:00 +21°C° 0 mm 2 m/S 734 mmHg 72%
    23:00 +20°C° 0 mm 2 m/S 734 mmHg 73%

    Morgen, 20 August, Dienstag

    Zeit Temperatur Niederschläge Wind Luftdruck Luftfeuchtigkeit
    00:00 +20°C° 0 mm 2 m/S 735 mmHg 74%
    01:00 +20°C° 0 mm 1 m/S 735 mmHg 74%
    02:00 +20°C° 0 mm 1 m/S 735 mmHg 74%
    03:00 +19°C° 0 mm 1 m/S 735 mmHg 77%
    04:00 +19°C° 0 mm 1 m/S 735 mmHg 79%
    05:00 +19°C° 0 mm 1 m/S 735 mmHg 81%
    06:00 +20°C° 0 mm 1 m/S 736 mmHg 81%
    07:00 +21°C° 0 mm 1 m/S 736 mmHg 80%
    08:00 +22°C° 0 mm 1 m/S 736 mmHg 80%
    09:00 +24°C° 0 mm 1 m/S 737 mmHg 76%
    10:00 +25°C° 0 mm 1 m/S 737 mmHg 72%
    11:00 +27°C° 0 mm 1 m/S 737 mmHg 68%
    12:00 +28°C° 0 mm 1 m/S 737 mmHg 64%
    13:00 +29°C° 0 mm 1 m/S 737 mmHg 61%
    14:00 +29°C° 0 mm 1 m/S 737 mmHg 58%
    15:00 +29°C° 0 mm 1 m/S 737 mmHg 59%
    16:00 +29°C° 0 mm 1 m/S 736 mmHg 60%
    17:00 +29°C° 0 mm 2 m/S 736 mmHg 62%
    18:00 +27°C° 0.1 mm 2 m/S 736 mmHg 69%
    19:00 +25°C° 0.1 mm 2 m/S 736 mmHg 77%
    20:00 +23°C° 0.1 mm 2 m/S 736 mmHg 84%
    21:00 +23°C° 0 mm 2 m/S 736 mmHg 83%
    22:00 +21°C° 0 mm 2 m/S 736 mmHg 82%
    23:00 +21°C° 0 mm 2 m/S 737 mmHg 81%

    übermorgen, 21 August, Mittwoch

    Zeit Temperatur Niederschläge Wind Luftdruck Luftfeuchtigkeit
    00:00 +21°C° 0 mm 2 m/S 736 mmHg 78%
    01:00 +20°C° 0 mm 2 m/S 736 mmHg 74%
    02:00 +20°C° 0 mm 2 m/S 736 mmHg 71%
    03:00 +19°C° 0 mm 2 m/S 736 mmHg 71%
    04:00 +19°C° 0 mm 2 m/S 736 mmHg 72%
    05:00 +18°C° 0 mm 2 m/S 736 mmHg 73%
    06:00 +19°C° 0 mm 2 m/S 736 mmHg 71%
    07:00 +21°C° 0 mm 2 m/S 736 mmHg 69%
    08:00 +22°C° 0 mm 3 m/S 736 mmHg 67%
    09:00 +25°C° 0 mm 3 m/S 736 mmHg 62%
    10:00 +27°C° 0 mm 3 m/S 736 mmHg 58%
    11:00 +28°C° 0 mm 3 m/S 736 mmHg 53%
    12:00 +29°C° 0 mm 2 m/S 736 mmHg 51%
    13:00 +30°C° 0 mm 2 m/S 736 mmHg 48%
    14:00 +31°C° 0 mm 1 m/S 736 mmHg 46%
    15:00 +31°C° 0 mm 1 m/S 736 mmHg 47%
    16:00 +30°C° 0 mm 1 m/S 736 mmHg 49%
    17:00 +30°C° 0 mm 1 m/S 736 mmHg 51%
    18:00 +28°C° 0.1 mm 1 m/S 736 mmHg 59%
    19:00 +26°C° 0.1 mm 1 m/S 736 mmHg 68%
    20:00 +24°C° 0.1 mm 2 m/S 736 mmHg 77%
    21:00 +23°C° 0.4 mm 2 m/S 736 mmHg 81%
    22:00 +21°C° 0.4 mm 2 m/S 737 mmHg 84%
    23:00 +22°C° 0.4 mm 1 m/S 737 mmHg 88%

    22 August, Donnerstag

    Zeit Temperatur Niederschläge Wind Luftdruck Luftfeuchtigkeit
    00:00 +20°C° 0 mm 2 m/S 737 mmHg 90%
    01:00 +20°C° 0 mm 2 m/S 737 mmHg 92%
    02:00 +20°C° 0 mm 2 m/S 737 mmHg 93%
    03:00 +20°C° 0 mm 2 m/S 737 mmHg 94%
    04:00 +19°C° 0 mm 2 m/S 737 mmHg 95%
    05:00 +19°C° 0 mm 2 m/S 736 mmHg 96%
    06:00 +20°C° 0 mm 2 m/S 737 mmHg 95%
    07:00 +20°C° 0 mm 2 m/S 737 mmHg 94%
    08:00 +21°C° 0 mm 2 m/S 737 mmHg 93%
    09:00 +21°C° 0 mm 2 m/S 737 mmHg 90%
    10:00 +23°C° 0 mm 2 m/S 737 mmHg 87%
    11:00 +23°C° 0 mm 2 m/S 737 mmHg 84%
    12:00 +24°C° 0 mm 2 m/S 737 mmHg 82%
    13:00 +24°C° 0 mm 2 m/S 737 mmHg 80%
    14:00 +25°C° 0 mm 2 m/S 737 mmHg 77%
    15:00 +25°C° 0.1 mm 3 m/S 737 mmHg 78%
    16:00 +24°C° 0.1 mm 3 m/S 737 mmHg 79%
    17:00 +24°C° 0.1 mm 3 m/S 737 mmHg 80%
    18:00 +22°C° 0.1 mm 3 m/S 737 mmHg 84%
    19:00 +21°C° 0.1 mm 3 m/S 737 mmHg 88%
    20:00 +20°C° 0.1 mm 3 m/S 737 mmHg 92%
    21:00 +20°C° 0.2 mm 3 m/S 737 mmHg 94%
    22:00 +19°C° 0.2 mm 3 m/S 737 mmHg 95%
    23:00 +19°C° 0.2 mm 3 m/S 737 mmHg 96%

    23 August, Freitag

    Zeit Temperatur Niederschläge Wind Luftdruck Luftfeuchtigkeit
    00:00 +18°C° 0 mm 2 m/S 737 mmHg 97%
    01:00 +18°C° 0 mm 2 m/S 737 mmHg 97%
    02:00 +18°C° 0 mm 2 m/S 737 mmHg 97%
    03:00 +18°C° 0.4 mm 2 m/S 737 mmHg 97%
    04:00 +18°C° 0.4 mm 2 m/S 737 mmHg 96%
    05:00 +19°C° 0.4 mm 2 m/S 738 mmHg 96%
    06:00 +19°C° 0.1 mm 2 m/S 738 mmHg 94%
    07:00 +19°C° 0.1 mm 2 m/S 738 mmHg 93%
    08:00 +20°C° 0.1 mm 2 m/S 738 mmHg 92%
    09:00 +21°C° 0 mm 2 m/S 739 mmHg 88%
    10:00 +21°C° 0 mm 2 m/S 739 mmHg 84%
    11:00 +23°C° 0 mm 2 m/S 739 mmHg 80%
    12:00 +24°C° 0.1 mm 3 m/S 739 mmHg 78%
    13:00 +24°C° 0.1 mm 3 m/S 739 mmHg 77%
    14:00 +25°C° 0.1 mm 3 m/S 739 mmHg 75%
    15:00 +25°C° 0.1 mm 3 m/S 739 mmHg 75%
    16:00 +25°C° 0.1 mm 4 m/S 739 mmHg 75%
    17:00 +23°C° 0.1 mm 4 m/S 738 mmHg 74%
    18:00 +22°C° 0 mm 4 m/S 738 mmHg 79%
    19:00 +21°C° 0 mm 3 m/S 738 mmHg 83%
    20:00 +19°C° 0 mm 3 m/S 738 mmHg 87%
    21:00 +19°C° 0 mm 3 m/S 739 mmHg 88%
    22:00 +18°C° 0 mm 3 m/S 739 mmHg 89%
    23:00 +18°C° 0 mm 3 m/S 739 mmHg 90%

    24 August, Samstag

    Zeit Temperatur Niederschläge Wind Luftdruck Luftfeuchtigkeit
    00:00 +18°C° 0 mm 3 m/S 739 mmHg 89%
    01:00 +17°C° 0 mm 3 m/S 739 mmHg 89%
    02:00 +17°C° 0 mm 3 m/S 739 mmHg 89%
    03:00 +17°C° 0 mm 3 m/S 739 mmHg 89%
    04:00 +17°C° 0 mm 3 m/S 739 mmHg 89%
    05:00 +17°C° 0 mm 3 m/S 739 mmHg 89%
    06:00 +18°C° 0 mm 4 m/S 739 mmHg 86%
    07:00 +18°C° 0 mm 4 m/S 739 mmHg 83%
    08:00 +19°C° 0 mm 5 m/S 739 mmHg 80%
    09:00 +20°C° 0 mm 5 m/S 739 mmHg 76%
    10:00 +21°C° 0 mm 5 m/S 739 mmHg 73%
    11:00 +23°C° 0 mm 5 m/S 739 mmHg 69%
    12:00 +23°C° 0 mm 5 m/S 739 mmHg 67%
    13:00 +25°C° 0 mm 5 m/S 739 mmHg 65%
    14:00 +26°C° 0 mm 5 m/S 739 mmHg 63%
    15:00 +25°C° 0 mm 5 m/S 738 mmHg 64%
    16:00 +25°C° 0 mm 5 m/S 738 mmHg 65%
    17:00 +25°C° 0 mm 5 m/S 738 mmHg 67%
    18:00 +23°C° 0 mm 5 m/S 738 mmHg 67%
    19:00 +22°C° 0 mm 5 m/S 738 mmHg 68%
    20:00 +21°C° 0 mm 5 m/S 738 mmHg 69%
    21:00 +20°C° 0 mm 5 m/S 738 mmHg 67%
    22:00 +20°C° 0 mm 6 m/S 738 mmHg 65%
    23:00 +20°C° 0 mm 6 m/S 738 mmHg 64%
    Mehr zeigen